Home > Weather > Flensburg > Past weeks

Flag for Germany Past Weather in Flensburg, Schleswig-Holstein, Germany — Yesterday and Last 2 Weeks

Now
61 °F

Sprinkles. Broken clouds.


Feels Like: 61 °F
Forecast: 55 / 66 °F
Wind: 8 mph from Southwest

Location: Soenderborg Lufthavn

Current Time: Jun 30, 2016 at 4:05:50 PM

Latest Report: Jun 30, 2016 at 3:21 PM


Visibility: 5 mi

Pressure: 29.80 "Hg

Humidity: 94%

Dew Point: 59 °F

Location of FlensburgLocation

Past Weather in Flensburg — Graph

°F

Flensburg Temperature Yesterday

Maximum temperature yesterday: 68 °F (at 2:20 PM)
Minimum temperature yesterday: 55 °F (at 1:20 AM)
Average temperature yesterday: 61 °F

High & Low Weather Summary for the Past Weeks

 TemperatureHumidityPressure
High79 °F (Jun 23, 3:20 PM)100% (Jun 16, 12:20 AM)30.21 "Hg (Jun 16, 12:20 AM)
Low50 °F (Jun 20, 12:50 AM)43% (Jun 28, 7:22 PM)29.50 "Hg (Jun 15, 2:20 PM)
Average62 °F81%29.91 "Hg
* Reported Jun 15 2:20 PM — Jun 30 2:51 PM, Flensburg, Weather by CustomWeather, © 2016

Note: Actual official high and low records may vary slightly from our data, if they occured in-between our weather recording intervals... More about our weather records

Advertising

Flensburg Weather History for the Previous 24 Hours

Scroll right to see more
 ConditionsComfort  
Time TempWeatherWind HumidityBarometerVisibility
2:51 PM
Thu, Jun 30
63 °FSprinkles. Broken clouds.12 mph88%29.80 "Hg5 mi
2:20 PM63 °FSprinkles. Scattered clouds.8 mph88%29.80 "Hg4 mi
1:52 PM61 °FSprinkles. Scattered clouds.9 mph94%29.80 "Hg4 mi
1:20 PM63 °FPartly sunny.12 mph83%29.80 "HgN/A
12:50 PM61 °FLight rain. Mostly cloudy.9 mph88%29.80 "HgN/A
12:20 PM61 °FLight rain. Mostly cloudy.9 mph88%29.80 "HgN/A
11:50 AM61 °FLight rain. Partly sunny.9 mph83%29.80 "HgN/A
11:20 AM61 °FLight rain. Broken clouds.8 mph88%29.80 "HgN/A
10:50 AM59 °FLight rain. Broken clouds.8 mph88%29.80 "HgN/A
10:20 AM61 °FLight rain. Partly sunny.9 mph83%29.77 "HgN/A
9:50 AM59 °FLight rain. Broken clouds.9 mph88%29.77 "HgN/A
9:20 AM59 °FLight rain. Partly sunny.8 mph88%29.80 "HgN/A
8:50 AM59 °FLight rain. Partly sunny.9 mph82%29.77 "HgN/A
8:20 AM59 °FPartly sunny.8 mph82%29.77 "HgN/A
7:51 AM59 °FPartly sunny.9 mph82%29.77 "HgN/A
6:50 AM59 °FPartly sunny.8 mph82%29.77 "HgN/A
6:20 AM59 °FPartly sunny.9 mph82%29.77 "HgN/A
5:50 AM59 °FPartly sunny.8 mph88%29.77 "HgN/A
5:20 AM59 °FPartly cloudy.8 mph88%29.77 "HgN/A
4:50 AM59 °FPassing clouds.7 mph88%29.77 "HgN/A
4:20 AM57 °FOvercast.7 mph94%29.77 "HgN/A
3:50 AM57 °FPassing clouds.6 mph94%29.77 "HgN/A
3:20 AM57 °FHeavy rain. Passing clouds.7 mph94%29.77 "Hg6 mi
2:50 AM59 °FSprinkles. Passing clouds.8 mph88%29.80 "HgN/A
2:20 AM59 °FSprinkles. Passing clouds.8 mph88%29.80 "HgN/A
1:50 AM59 °FLight rain. Passing clouds.7 mph88%29.80 "HgN/A
1:20 AM59 °FPassing clouds.7 mph82%29.80 "HgN/A
12:50 AM57 °FPassing clouds.6 mph88%29.80 "HgN/A
12:20 AM57 °FPassing clouds.6 mph82%29.83 "HgN/A
11:50 PM
Wed, Jun 29
57 °FCool.6 mph82%29.83 "HgN/A
11:20 PM55 °FCool.3 mph88%29.83 "HgN/A
10:50 PM57 °FCool.2 mph82%29.83 "HgN/A
10:20 PM57 °FPassing clouds.5 mph82%29.83 "HgN/A
9:50 PM59 °FPassing clouds.6 mph77%29.83 "HgN/A
9:20 PM61 °FPassing clouds.5 mph72%29.80 "HgN/A
9:02 PM61 °FScattered clouds.7 mph72%29.80 "HgN/A
8:20 PM63 °FScattered clouds.7 mph73%29.80 "HgN/A
8:07 PM63 °FScattered clouds.7 mph73%29.80 "HgN/A
6:51 PM64 °FSprinkles. Broken clouds.9 mph68%29.80 "HgN/A
5:50 PM64 °FBroken clouds.9 mph68%29.77 "HgN/A
4:50 PM66 °FBroken clouds.13 mph64%29.77 "HgN/A
4:20 PM68 °FScattered clouds.9 mph60%29.77 "HgN/A
Weather by CustomWeather, © 2016

See weather overviewHow to use our weather pages